#timestamp,LO_Frequency,Hit,StdDev 
1566248415.7,286046998.3,N
1566248435.5,286047000.8,N
1566248455.4,286047000.5,N
1566248475.2,286047000.1,N
1566248495.0,286047001.9,N
1566248495.9,286047001.9,N
1566248515.8,286047002.1,N
1566248535.6,286046998.2,N
1566248555.5,286047001.1,N
1566248575.3,286047000.2,N
1566248595.1,286047000.2,N
1566248615.9,286047000.4,N
1566248635.7,286046998.3,N
1566248655.6,286046998.7,N
1566248675.4,286046998.2,N
1566248695.2,286047001.1,N
1566248715.1,286047000.3,N
1566248716.0,286047000.3,N
1566248735.8,286047002.4,N
1566248755.7,286047001.3,N
1566248775.5,286047002.6,N
1566248795.3,286047002.6,N
1566248815.2,286047002.3,N
1566248835.0,286047001.0,N
1566248835.9,286047001.0,N
1566248855.8,286047000.8,N
1566248875.6,286047000.5,N
1566248895.4,286046999.0,N
1566248915.3,286047000.8,N
1566248935.1,286047000.9,N
1566248955.9,286047000.8,N
1566248975.7,286047000.4,N
1566248995.5,286047002.5,N
1566249015.4,286047006.8,Y
1566249035.2,286047008.2,P
1566249055.0,286047006.2,N
1566249055.9,286047006.2,N
1566249075.8,286047004.9,N
1566249095.6,286047003.7,N
1566249115.5,286047005.6,N
1566249135.3,286047003.3,N
1566249155.1,286047001.5,N
1566249175.9,286047002.5,N
1566249195.7,286047001.8,N
1566249215.5,286047004.4,N
1566249235.4,286047004.0,N
1566249255.2,286047003.6,N
1566249275.1,286047003.4,N
1566249276.0,286047003.4,N
1566249295.8,286047004.0,N
1566249315.6,286047004.3,N
1566249335.5,286047003.5,N
1566249355.3,286047004.0,N
1566249375.2,286047001.8,N
1566249395.9,286047004.1,N
1566249415.7,286047004.0,N
1566249435.6,286047003.6,N
1566249455.4,286047003.1,N
1566249475.3,286047006.0,Y
1566249495.1,286046999.0,P
1566249496.0,286046999.0,N
1566249515.8,286046997.1,N
1566249535.7,286046999.0,N
1566249555.5,286046998.4,N
1566249575.3,286046998.4,N
1566249595.2,286046998.5,N
1566249615.0,286047000.9,N
1566249615.9,286047000.9,N
1566249635.8,286047001.2,N
1566249655.6,286047001.2,N
1566249675.4,286046998.7,N
1566249695.3,286047001.1,N
1566249715.1,286046998.3,N
1566249735.9,286046998.4,N
1566249755.7,286046996.7,N
1566249775.5,286046997.0,N
1566249795.4,286046998.8,N
1566249815.2,286046998.4,N
1566249835.0,286046998.9,N
1566249835.9,286046998.9,N
1566249855.8,286046999.3,N
1566249875.6,286046999.0,N
1566249895.5,286046999.4,N
1566249915.3,286046999.4,N
1566249935.1,286046996.9,N
1566249955.9,286046996.9,N
1566249975.7,286046995.3,Y
1566249995.6,286046997.2,P
1566250015.4,286046996.9,P
1566250035.2,286046999.2,N
1566250055.1,286046997.0,N
1566250056.0,286046997.0,N
1566250075.8,286046996.9,Y
1566250095.6,286047000.7,P
1566250115.5,286046998.5,N
1566250135.3,286046998.1,N
1566250155.2,286046999.5,N
1566250175.9,286046999.0,N
1566250195.7,286046999.4,N
1566250215.6,286046999.3,N
1566250235.4,286046996.5,Y
1566250255.3,286047001.1,P
1566250275.1,286046998.7,N
1566250276.0,286046998.7,N
1566250295.8,286046996.8,Y
1566250315.7,286046998.6,P
1566250335.5,286046999.3,N
1566250355.4,286046997.0,P
1566250375.2,286046995.4,Y
1566250395.0,286046997.0,P
1566250395.9,286046997.0,P
1566250415.8,286046998.9,N
1566250435.6,286046998.7,N
1566250455.5,286046996.9,Y
1566250475.3,286047001.0,P
1566250495.1,286047000.3,N
1566250515.9,286046999.8,N
1566250535.7,286047001.2,N
1566250555.5,286046998.2,N
1566250575.4,286047000.4,N
1566250595.2,286047000.8,N
1566250615.1,286047002.8,N
1566250616.0,286047002.8,N
1566250635.8,286047000.5,N
1566250655.6,286047001.2,N
1566250675.5,286046998.5,N
1566250695.3,286046998.8,N
1566250715.2,286047000.6,N
1566250735.9,286047000.6,N
1566250755.7,286047000.0,N
1566250775.6,286047000.0,N
1566250795.4,286047001.0,N
1566250815.2,286047001.0,N
1566250835.1,286047000.9,N
1566250836.0,286047000.9,N
1566250855.8,286047001.2,N
1566250875.7,286047000.3,N
1566250895.5,286046999.7,N
1566250915.3,286047001.2,N
1566250935.2,286047002.4,N
1566250955.0,286047001.9,N
1566250955.9,286047001.9,N
1566250975.8,286047003.7,Y
1566250995.6,286047003.5,P
1566251015.4,286047002.8,N
1566251035.3,286046998.5,N
1566251055.1,286047000.0,N
1566251075.8,286047002.2,N
1566251095.7,286047002.0,N
1566251115.5,286047001.4,N
1566251135.4,286047004.4,N
1566251155.2,286047003.2,N
1566251175.0,286047003.5,N
1566251175.9,286047003.5,N
1566251195.8,286047003.7,N
1566251215.6,286047004.2,N
1566251235.5,286047003.5,N
1566251255.3,286047003.4,N
1566251275.1,286047004.3,N
1566251295.9,286046999.9,N
1566251315.7,286046999.7,N
1566251335.5,286047001.6,N
1566251355.4,286047002.2,N
1566251375.2,286047004.3,N
1566251395.1,286047003.9,N
1566251396.0,286047003.9,N
1566251415.8,286047004.2,N
1566251435.6,286047001.3,N
1566251455.5,286047003.2,N
1566251475.3,286047001.7,N
1566251495.2,286047003.8,N
1566251515.9,286047003.3,N
1566251535.7,286047004.2,N
1566251555.6,286047003.9,N
1566251575.4,286047002.2,N
1566251595.2,286047002.3,N
1566251615.1,286047001.8,N
1566251616.0,286047001.8,N
1566251635.8,286047001.6,N
1566251655.7,286047002.5,N
1566251675.5,286047001.5,N
1566251695.3,286047004.0,Y
1566251715.2,286047002.7,P
1566251735.0,286047002.3,P
1566251735.9,286047002.3,P
1566251755.8,286047002.4,Y
1566251775.6,286046998.4,P
1566251795.4,286046999.0,N
1566251815.3,286046998.7,N
1566251835.1,286046999.0,N
1566251855.9,286046998.6,N
1566251875.7,286047001.1,N
1566251895.5,286046999.1,N
1566251915.4,286046999.2,N
1566251935.2,286046998.6,N
1566251955.1,286046998.2,N
1566251956.0,286046998.2,N
1566251975.8,286046999.6,N
1566251995.6,286046998.7,N
